1207300031,1997,03,01,00,0.009
1207300031,1997,03,01,01,0.008
1207300031,1997,03,01,02,0.008
1207300031,1997,03,01,03,0.008
1207300031,1997,03,01,04,0.013
1207300031,1997,03,01,05,0.013
1207300031,1997,03,01,06,0.007
1207300031,1997,03,01,07,0.003
1207300031,1997,03,01,08,0.009
1207300031,1997,03,01,09,0.021
1207300031,1997,03,01,10,0.027
1207300031,1997,03,01,11,0.031
1207300031,1997,03,01,12,0.033
1207300031,1997,03,01,13,0.031
1207300031,1997,03,01,14,0.03
1207300031,1997,03,01,15,0.031
1207300031,1997,03,01,16,0.032
1207300031,1997,03,01,17,0.032
1207300031,1997,03,01,18,0.032
1207300031,1997,03,01,19,0.031
1207300031,1997,03,01,20,0.031
1207300031,1997,03,01,21,0.007
1207300031,1997,03,01,22,0.007
1207300031,1997,03,01,23,0.01
1207300031,1997,03,02,00,0.019
1207300031,1997,03,02,01,0.018
1207300031,1997,03,02,02,0.007
1207300031,1997,03,02,03,0.007
1207300031,1997,03,02,04,0.009
1207300031,1997,03,02,05,0.01
1207300031,1997,03,02,06,0.014
1207300031,1997,03,02,07,0.008
1207300031,1997,03,02,08,0.013
1207300031,1997,03,02,09,0.019
1207300031,1997,03,02,10,0.029
1207300031,1997,03,02,11,0.033
1207300031,1997,03,02,12,0.032
1207300031,1997,03,02,13,0.033
1207300031,1997,03,02,14,0.033
1207300031,1997,03,02,15,0.035
1207300031,1997,03,02,16,0.033
1207300031,1997,03,02,17,0.031
1207300031,1997,03,02,18,0.031
1207300031,1997,03,02,19,0.03
1207300031,1997,03,02,20,0.029
1207300031,1997,03,02,21,0.026
1207300031,1997,03,02,22,0.025
1207300031,1997,03,02,23,0.026
1207300031,1997,03,04,00,0.029
1207300031,1997,03,04,01,0.039
1207300031,1997,03,04,02,0.029
1207300031,1997,03,04,03,0.009
1207300031,1997,03,04,04,0.01
1207300031,1997,03,04,05,0.014
1207300031,1997,03,04,06,0.013
1207300031,1997,03,04,07,0.025
1207300031,1997,03,04,08,0.028
1207300031,1997,03,04,09,0.036
1207300031,1997,03,04,10,0.044
1207300031,1997,03,04,11,0.04
1207300031,1997,03,04,12,0.034
1207300031,1997,03,04,13,0.03
1207300031,1997,03,04,14,0.03
1207300031,1997,03,04,15,0.027
1207300031,1997,03,04,16,0.028
1207300031,1997,03,04,17,0.033
1207300031,1997,03,04,18,0.028
1207300031,1997,03,04,19,0.025
1207300031,1997,03,04,20,0.024
1207300031,1997,03,04,21,0.024
1207300031,1997,03,04,22,0.021
1207300031,1997,03,04,23,0.019
1207300031,1997,03,05,00,0.017
1207300031,1997,03,05,01,0.017
1207300031,1997,03,05,02,0.016
1207300031,1997,03,05,03,0.016
1207300031,1997,03,05,04,0.014
1207300031,1997,03,05,05,0.013
1207300031,1997,03,05,06,0.013
1207300031,1997,03,05,07,0.009
1207300031,1997,03,05,08,0.01
1207300031,1997,03,05,09,0.012
1207300031,1997,03,05,10,0.015
1207300031,1997,03,05,11,0.018
1207300031,1997,03,05,12,0.021
1207300031,1997,03,05,13,0.023
1207300031,1997,03,05,14,0.025
1207300031,1997,03,05,15,0.027
1207300031,1997,03,05,16,0.029
1207300031,1997,03,05,17,0.026
1207300031,1997,03,05,18,0.022
1207300031,1997,03,05,19,0.021
1207300031,1997,03,05,20,0.018
1207300031,1997,03,05,21,0.015
1207300031,1997,03,05,22,0.014
1207300031,1997,03,05,23,0.016
1207300031,1997,03,06,00,0.018
1207300031,1997,03,06,01,0.019
1207300031,1997,03,06,02,0.018
1207300031,1997,03,06,03,0.016
1207300031,1997,03,06,04,0.014
1207300031,1997,03,06,05,0.022
1207300031,1997,03,06,06,0.026
1207300031,1997,03,06,07,0.026
1207300031,1997,03,06,08,0.03
1207300031,1997,03,06,09,0.032
1207300031,1997,03,06,10,0.037
1207300031,1997,03,06,11,0.041
1207300031,1997,03,06,12,0.047
1207300031,1997,03,06,13,0.047
1207300031,1997,03,06,14,0.049
1207300031,1997,03,06,15,0.049
1207300031,1997,03,06,16,0.049
1207300031,1997,03,06,17,0.049
1207300031,1997,03,06,18,0.046
1207300031,1997,03,06,19,0.043
1207300031,1997,03,06,20,0.036
1207300031,1997,03,06,21,0.04
1207300031,1997,03,06,22,0.041
1207300031,1997,03,06,23,0.04
1207300031,1997,03,08,00,0.032
1207300031,1997,03,08,01,0.032
1207300031,1997,03,08,02,0.028
1207300031,1997,03,08,03,0.019
1207300031,1997,03,08,04,0.02
1207300031,1997,03,08,05,0.022
1207300031,1997,03,08,06,0.011
1207300031,1997,03,08,07,0.005
1207300031,1997,03,08,08,0.025
1207300031,1997,03,08,09,0.036
1207300031,1997,03,08,10,0.041
1207300031,1997,03,08,11,0.046
1207300031,1997,03,08,12,0.049
1207300031,1997,03,08,13,0.05
1207300031,1997,03,08,14,0.05
1207300031,1997,03,08,15,0.052
1207300031,1997,03,08,16,0.052
1207300031,1997,03,08,17,0.049
1207300031,1997,03,08,18,0.046
1207300031,1997,03,08,19,0.037
1207300031,1997,03,08,20,0.021
1207300031,1997,03,08,21,0.022
1207300031,1997,03,08,22,0.017
1207300031,1997,03,08,23,0.021
1207300031,1997,03,09,00,0.015
1207300031,1997,03,09,01,0.002
1207300031,1997,03,09,02,0.016
1207300031,1997,03,09,03,0.003
1207300031,1997,03,09,04,0.009
1207300031,1997,03,09,05,0.012
1207300031,1997,03,09,06,0.018
1207300031,1997,03,09,07,0.011
1207300031,1997,03,09,08,0.01
1207300031,1997,03,09,09,0.028
1207300031,1997,03,09,10,0.039
1207300031,1997,03,09,11,0.049
1207300031,1997,03,09,12,0.051
1207300031,1997,03,09,13,0.05
1207300031,1997,03,09,14,0.05
1207300031,1997,03,09,15,0.052
1207300031,1997,03,09,16,0.053
1207300031,1997,03,09,17,0.054
1207300031,1997,03,09,18,0.049
1207300031,1997,03,09,19,0.05
1207300031,1997,03,09,20,0.041
1207300031,1997,03,09,21,0.021
1207300031,1997,03,09,22,0.017
1207300031,1997,03,09,23,0.022
1207300031,1997,03,10,00,0.013
1207300031,1997,03,10,01,0.013
1207300031,1997,03,10,02,0.017
1207300031,1997,03,10,03,0.009
1207300031,1997,03,10,04,0.011
1207300031,1997,03,10,05,0.014
1207300031,1997,03,10,06,0.011
1207300031,1997,03,10,07,0.006
1207300031,1997,03,10,08,0.013
1207300031,1997,03,10,09,0.023
1207300031,1997,03,10,10,0.039
1207300031,1997,03,10,11,0.05
1207300031,1997,03,10,12,0.053
1207300031,1997,03,10,13,0.052
1207300031,1997,03,10,14,0.05
1207300031,1997,03,10,15,0.047
1207300031,1997,03,10,16,0.045
1207300031,1997,03,10,17,0.046
1207300031,1997,03,10,18,0.047
1207300031,1997,03,10,19,0.044
1207300031,1997,03,10,20,0.04
1207300031,1997,03,10,21,0.043
1207300031,1997,03,10,22,0.032
1207300031,1997,03,10,23,0.022
1207300031,1997,03,11,00,0.033
1207300031,1997,03,11,01,0.009
1207300031,1997,03,11,02,0.012
1207300031,1997,03,11,03,0.014
1207300031,1997,03,11,04,0.009
1207300031,1997,03,11,05,0.011
1207300031,1997,03,11,06,0.009
1207300031,1997,03,11,07,0.005
1207300031,1997,03,11,08,0.01
1207300031,1997,03,11,09,0.018
1207300031,1997,03,11,10,0.026
1207300031,1997,03,11,11,0.037
1207300031,1997,03,11,12,0.042
1207300031,1997,03,11,13,0.042
1207300031,1997,03,11,14,0.041
1207300031,1997,03,11,15,0.041
1207300031,1997,03,11,16,0.037
1207300031,1997,03,11,17,0.035
1207300031,1997,03,11,18,0.024
1207300031,1997,03,11,19,0.022
1207300031,1997,03,11,20,0.021
1207300031,1997,03,11,21,0.014
1207300031,1997,03,11,22,0.018
1207300031,1997,03,11,23,0.004
1207300031,1997,03,12,00,0.001
1207300031,1997,03,12,01,0.005
1207300031,1997,03,12,02,0
1207300031,1997,03,12,03,0
1207300031,1997,03,12,04,0.001
1207300031,1997,03,12,05,0.007
1207300031,1997,03,12,06,0.02
1207300031,1997,03,12,07,0.019
1207300031,1997,03,12,08,0.028
1207300031,1997,03,12,09,0.036
1207300031,1997,03,12,10,0.042
1207300031,1997,03,12,11,0.051
1207300031,1997,03,12,12,0.058
1207300031,1997,03,12,13,0.064
1207300031,1997,03,12,14,0.064
1207300031,1997,03,12,15,0.069
1207300031,1997,03,12,16,0.068
1207300031,1997,03,12,17,0.063
1207300031,1997,03,12,18,0.05
1207300031,1997,03,12,19,0.03
1207300031,1997,03,12,20,0.033
1207300031,1997,03,12,21,0.038
1207300031,1997,03,12,22,0.041
1207300031,1997,03,12,23,0.045
1207300031,1997,03,13,00,0.046
1207300031,1997,03,13,01,0.042
1207300031,1997,03,13,02,0.038
1207300031,1997,03,13,03,0.035
1207300031,1997,03,13,04,0.036
1207300031,1997,03,13,05,0.033
1207300031,1997,03,13,06,0.029
1207300031,1997,03,13,07,0.027
1207300031,1997,03,13,08,0.027
1207300031,1997,03,13,10,0.032
1207300031,1997,03,13,11,0.043
1207300031,1997,03,13,12,0.041
1207300031,1997,03,13,13,0.044
1207300031,1997,03,13,14,0.045
1207300031,1997,03,13,15,0.05
1207300031,1997,03,13,16,0.05
1207300031,1997,03,13,17,0.046
1207300031,1997,03,13,18,0.046
1207300031,1997,03,13,19,0.046
1207300031,1997,03,13,20,0.044
1207300031,1997,03,13,21,0.042
1207300031,1997,03,13,22,0.039
1207300031,1997,03,13,23,0.038
1207300031,1997,03,14,00,0.031
1207300031,1997,03,14,01,0.028
1207300031,1997,03,14,02,0.036
1207300031,1997,03,14,03,0.026
1207300031,1997,03,14,04,0.023
1207300031,1997,03,14,05,0.016
1207300031,1997,03,14,06,0.008
1207300031,1997,03,14,07,0.004
1207300031,1997,03,14,08,0.014
1207300031,1997,03,14,09,0.032
1207300031,1997,03,14,10,0.035
1207300031,1997,03,14,11,0.034
1207300031,1997,03,14,12,0.036
1207300031,1997,03,14,13,0.042
1207300031,1997,03,14,14,0.056
1207300031,1997,03,14,15,0.041
1207300031,1997,03,14,16,0.041
1207300031,1997,03,14,17,0.043
1207300031,1997,03,14,18,0.042
1207300031,1997,03,14,19,0.034
1207300031,1997,03,14,20,0.02
1207300031,1997,03,14,21,0.017
1207300031,1997,03,14,22,0.016
1207300031,1997,03,14,23,0.023
1207300031,1997,03,15,00,0.026
1207300031,1997,03,15,01,0.029
1207300031,1997,03,15,02,0.028
1207300031,1997,03,15,03,0.027
1207300031,1997,03,15,04,0.026
1207300031,1997,03,15,05,0.025
1207300031,1997,03,15,06,0.024
1207300031,1997,03,15,07,0.022
1207300031,1997,03,15,08,0.023
1207300031,1997,03,15,09,0.026
1207300031,1997,03,15,10,0.03
1207300031,1997,03,15,11,0.035
1207300031,1997,03,15,12,0.04
1207300031,1997,03,15,13,0.045
1207300031,1997,03,15,14,0.049
1207300031,1997,03,15,15,0.053
1207300031,1997,03,15,16,0.056
1207300031,1997,03,15,17,0.056
1207300031,1997,03,15,18,0.05
1207300031,1997,03,15,19,0.043
1207300031,1997,03,15,20,0.033
1207300031,1997,03,15,21,0.027
1207300031,1997,03,15,22,0.014
1207300031,1997,03,15,23,0.029
1207300031,1997,03,16,00,0.036
1207300031,1997,03,16,01,0.035
1207300031,1997,03,16,02,0.03
1207300031,1997,03,16,03,0.026
1207300031,1997,03,16,04,0.033
1207300031,1997,03,16,05,0.026
1207300031,1997,03,16,06,0.026
1207300031,1997,03,16,07,0.029
1207300031,1997,03,16,08,0.032
1207300031,1997,03,16,09,0.037
1207300031,1997,03,16,10,0.04
1207300031,1997,03,16,11,0.045
1207300031,1997,03,16,12,0.049
1207300031,1997,03,16,13,0.052
1207300031,1997,03,16,14,0.052
1207300031,1997,03,16,15,0.054
1207300031,1997,03,16,16,0.053
1207300031,1997,03,16,17,0.051
1207300031,1997,03,16,18,0.044
1207300031,1997,03,16,19,0.035
1207300031,1997,03,16,20,0.03
1207300031,1997,03,16,21,0.034
1207300031,1997,03,16,22,0.036
1207300031,1997,03,16,23,0.026
1207300031,1997,03,18,00,0.01
1207300031,1997,03,18,01,0.009
1207300031,1997,03,18,02,0.014
1207300031,1997,03,18,03,0.012
1207300031,1997,03,18,04,0.01
1207300031,1997,03,18,05,0.017
1207300031,1997,03,18,06,0.016
1207300031,1997,03,18,07,0.016
1207300031,1997,03,18,08,0.017
1207300031,1997,03,18,09,0.017
